Location: Marne
(34.0056°N, 117.9064°W)
Time: 15:39:37
(UTC+00:00)

Centaur D AC-28 - Pass Details

Date: 18 January 2020
Orbit: 615 x 36440 km, 28.6° (Epoch: 23 February)

Event Time Altitude Azimuth Distance (km) Brightness Sun altitude
Rises 03:31:09 0° 248° (WSW) 13,453 9.4 -29.5°
Reaches altitude 10° 03:47:02 10° 246° (WSW) 7,899 7.9 -32.8°
Enters shadow 04:02:20 46° 188° (S) 1,688 3.6 -35.9°
